H1 CPF 2 NER 2021 10 29 9 302 01 glonass128 H2 1106401 9128 37867 2021 10 29 0 0 0 2021 11 1 23 45 0 900 1 1 0 0 0 1 H9 10 0 59516 0.00000 0 -6401844.583 -19319054.714 15373459.291 10 0 59516 900.00000 0 -6488301.718 -21057153.745 12835193.719 10 0 59516 1800.00000 0 -6682619.614 -22457426.143 10047369.244 10 0 59516 2700.00000 0 -6935213.600 -23487392.042 7064046.805 10 0 59516 3600.00000 0 -7192159.370 -24126979.415 3943179.784 10 0 59516 4500.00000 0 -7397692.824 -24369260.390 745487.090 10 0 59516 5400.00000 0 -7496802.361 -24220651.620 -2466735.315 10 0 59516 6300.00000 0 -7437802.303 -23700568.543 -5630840.550 10 0 59516 7200.00000 0 -7174776.239 -22840546.830 -8685069.188 10 0 59516 8100.00000 0 -6669784.063 -21682867.415 -11569773.931 10 0 59516 9000.00000 0 -5894736.313 -20278743.186 -14228604.640 10 0 59516 9900.00000 0 -4832853.615 -18686144.572 -16609628.350 10 0 59516 10800.00000 0 -3479646.918 -16967357.052 -18666360.523 10 0 59516 11700.00000 0 -1843374.993 -15186375.203 -20358685.783 10 0 59516 12600.00000 0 55041.565 -13406244.867 -21653648.933 10 0 59516 13500.00000 0 2182647.047 -11686466.956 -22526100.257 10 0 59516 14400.00000 0 4495591.960 -10080573.261 -22959182.402 10 0 59516 15300.00000 0 6940740.697 -8633976.828 -22944649.779 10 0 59516 16200.00000 0 9457677.529 -7382187.062 -22483015.113 10 0 59516 17100.00000 0 11981026.155 -6349463.572 -21583521.505 10 0 59516 18000.00000 0 14442984.925 -5547963.669 -20263941.919 10 0 59516 18900.00000 0 16775971.252 -4977417.037 -18550211.580 10 0 59516 19800.00000 0 18915264.603 -4625338.492 -16475901.919 10 0 59516 20700.00000 0 20801537.854 -4467766.982 -14081547.813 10 0 59516 21600.00000 0 22383172.186 -4470496.788 -11413842.515 10 0 59516 22500.00000 0 23618260.149 -4590746.380 -8524717.020 10 0 59516 23400.00000 0 24476214.942 -4779192.395 -5470322.691 10 0 59516 24300.00000 0 24938920.823 -4982281.260 -2309937.488 10 0 59516 25200.00000 0 25001378.842 -5144719.929 895182.718 10 0 59516 26100.00000 0 24671823.204 -5212040.291 4082985.448 10 0 59516 27000.00000 0 23971305.509 -5133129.269 7191813.062 10 0 59516 27900.00000 0 22932766.002 -4862618.583 10161582.065 10 0 59516 28800.00000 0 21599631.851 -4363034.458 12934928.448 10 0 59516 29700.00000 0 20024001.650 -3606617.803 15458298.324 10 0 59516 30600.00000 0 18264491.788 -2576739.156 17682964.389 10 0 59516 31500.00000 0 16383833.894 -1268849.550 19565950.182 10 0 59516 32400.00000 0 14446322.171 309072.695 21070846.027 10 0 59516 33300.00000 0 12515215.263 2136598.665 22168502.425 10 0 59516 34200.00000 0 10650198.950 4181447.292 22837588.659 10 0 59516 35100.00000 0 8905013.328 6400582.715 23065006.655 10 0 59516 36000.00000 0 7325341.532 8741767.563 22846152.299 10 0 59516 36900.00000 0 5947046.609 11145510.484 22185018.783 10 0 59516 37800.00000 0 4794829.238 13547330.048 21094139.011 10 0 59516 38700.00000 0 3881362.087 15880243.821 19594366.612 10 0 59516 39600.00000 0 3206937.454 18077381.475 17714497.822 10 0 59516 40500.00000 0 2759643.840 20074614.953 15490739.331 10 0 59516 41400.00000 0 2516065.299 21813097.085 12966030.017 10 0 59516 42300.00000 0 2442475.650 23241602.707 10189227.642 10 0 59516 43200.00000 0 2496478.438 24318573.689 7214174.428 10 0 59516 44100.00000 0 2629024.422 25013780.774 4098658.374 10 0 59516 45000.00000 0 2786721.636 25309530.513 903289.958 10 0 59516 45900.00000 0 2914339.887 25201364.437 -2309683.859 10 0 59516 46800.00000 0 2957402.470 24698218.916 -5477604.487 10 0 59516 47700.00000 0 2864753.409 23822037.186 -8538640.074 10 0 59516 48600.00000 0 2590989.009 22606848.674 -11433011.466 10 0 59516 49500.00000 0 2098647.860 21097353.852 -14104179.785 10 0 59516 50400.00000 0 1360063.736 19347074.461 -16499970.228 10 0 59516 51300.00000 0 358800.221 17416147.872 -18573608.227 10 0 59516 52200.00000 0 -909395.897 15368859.750 -20284646.117 10 0 59516 53100.00000 0 -2436164.454 13271020.495 -21599760.947 10 0 59516 54000.00000 0 -4200644.245 11187297.306 -22493407.273 10 0 59516 54900.00000 0 -6170123.643 9178615.280 -22948312.065 10 0 59516 55800.00000 0 -8301201.975 7299737.497 -22955802.458 10 0 59516 56700.00000 0 -10541412.414 5597125.732 -22515960.838 10 0 59516 57600.00000 0 -12831237.502 4107170.874 -21637605.398 10 0 59516 58500.00000 0 -15106431.927 2854865.880 -20338097.975 10 0 59516 59400.00000 0 -17300554.547 1852974.766 -18642984.441 10 0 59516 60300.00000 0 -19347603.219 1101729.789 -16585476.166 10 0 59516 61200.00000 0 -21184642.045 589066.524 -14205784.145 10 0 59516 62100.00000 0 -22754311.541 291383.757 -11550320.067 10 0 59516 63000.00000 0 -24007117.603 174793.112 -8670780.935 10 0 59516 63900.00000 0 -24903404.811 196803.150 -5623135.998 10 0 59516 64800.00000 0 -25414933.246 308364.678 -2466536.240 10 0 59516 65700.00000 0 -25525994.793 456189.487 737832.136 10 0 59516 66600.00000 0 -25234024.280 585243.817 3927927.940 10 0 59516 67500.00000 0 -24549681.843 641311.130 7042046.476 10 0 59516 68400.00000 0 -23496404.762 573516.481 10019999.976 10 0 59516 69300.00000 0 -22109448.747 336706.847 12804265.096 10 0 59516 70200.00000 0 -20434459.429 -106411.784 15341076.698 10 0 59516 71100.00000 0 -18525633.677 -783469.501 17581448.379 10 0 59516 72000.00000 0 -16443546.827 -1711034.745 19482101.630 10 0 59516 72900.00000 0 -14252735.122 -2893682.074 21006287.422 10 0 59516 73800.00000 0 -12019132.219 -4323564.756 22124485.903 10 0 59516 74700.00000 0 -9807464.442 -5980510.997 22814971.864 10 0 59516 75600.00000 0 -7678710.870 -7832641.486 23064235.890 10 0 59516 76500.00000 0 -5687731.777 -9837484.834 22867253.332 10 0 59516 77400.00000 0 -3881162.375 -11943547.156 22227595.493 10 0 59516 78300.00000 0 -2295658.157 -14092273.470 21157379.989 10 0 59516 79200.00000 0 -956564.279 -16220322.250 19677059.654 10 0 59516 80100.00000 0 122935.574 -18262061.008 17815052.150 10 0 59516 81000.00000 0 942154.753 -20152181.028 15607215.214 10 0 59516 81900.00000 0 1512708.679 -21828323.517 13096175.339 10 0 59516 82800.00000 0 1857796.273 -23233607.874 10330520.788 10 0 59516 83700.00000 0 2010986.799 -24318955.863 7363872.756 10 0 59516 84600.00000 0 2014562.258 -25045113.076 4253851.363 10 0 59516 85500.00000 0 1917484.719 -25384280.861 1060956.024 10 0 59517 0.00000 0 1773074.652 -25321287.910 -2152617.747 10 0 59517 900.00000 0 1636499.246 -24854249.630 -5324203.031 10 0 59517 1800.00000 0 1562178.797 -23994685.507 -8391898.101 10 0 59517 2700.00000 0 1601222.968 -22767087.549 -11295794.795 10 0 59517 3600.00000 0 1799008.323 -21207956.848 -13979168.298 10 0 59517 4500.00000 0 2193002.452 -19364348.421 -16389604.670 10 0 59517 5400.00000 0 2810929.541 -17291985.860 -18480041.841 10 0 59517 6300.00000 0 3669357.441 -15053025.978 -20209702.106 10 0 59517 7200.00000 0 4772767.850 -12713568.758 -21544896.671 10 0 59517 8100.00000 0 6113150.202 -10341018.626 -22459685.859 10 0 59517 9000.00000 0 7670137.086 -8001409.112 -22936382.014 10 0 59517 9900.00000 0 9411675.512 -5756804.116 -22965885.598 10 0 59517 10800.00000 0 11295205.367 -3662885.054 -22547848.818 10 0 59517 11700.00000 0 13269294.747 -1766824.634 -21690664.720 10 0 59517 12600.00000 0 15275662.486 -105535.246 -20411283.401 10 0 59517 13500.00000 0 17251502.071 1295636.502 -18734860.403 10 0 59517 14400.00000 0 19132008.723 2423716.976 -16694245.711 10 0 59517 15300.00000 0 20853003.175 3278383.491 -14329324.743 10 0 59517 16200.00000 0 22353542.197 3871704.739 -11686225.551 10 0 59517 17100.00000 0 23578406.888 4227357.875 -8816408.706 10 0 59517 18000.00000 0 24480365.330 4379358.266 -5775658.552 10 0 59517 18900.00000 0 25022116.135 4370358.075 -2622996.017 10 0 59517 19800.00000 0 25177833.087 4249587.485 580465.639 10 0 59517 20700.00000 0 24934247.912 4070526.703 3772699.870 10 0 59517 21600.00000 0 24291227.661 3888407.654 6891958.256 10 0 59517 22500.00000 0 23261824.104 3757650.696 9877951.943 10 0 59517 23400.00000 0 21871794.297 3729343.844 12673001.220 10 0 59517 24300.00000 0 20158613.106 3848869.771 15223132.389 10 0 59517 25200.00000 0 18170018.979 4153779.333 17479102.313 10 0 59517 26100.00000 0 15962153.120 4671999.960 19397332.464 10 0 59517 27000.00000 0 13597368.378 5420453.394 20940736.152 10 0 59517 27900.00000 0 11141797.277 6404140.487 22079424.522 10 0 59517 28800.00000 0 8662778.232 7615731.757 22791278.862 10 0 59517 29700.00000 0 6226244.512 9035681.932 23062379.052 10 0 59517 30600.00000 0 3894182.038 10632865.556 22887280.132 10 0 59517 31500.00000 0 1722259.592 12365709.432 22269131.344 10 0 59517 32400.00000 0 -242271.856 14183777.519 21219634.396 10 0 59517 33300.00000 0 -1962324.438 16029745.080 19758840.285 10 0 59517 34200.00000 0 -3412291.085 17841682.476 17914786.646 10 0 59517 35100.00000 0 -4578880.567 19555555.667 15722980.439 10 0 59517 36000.00000 0 -5461434.329 21107840.640 13225733.617 10 0 59517 36900.00000 0 -6071710.799 22438143.224 10471362.531 10 0 59517 37800.00000 0 -6433145.080 23491714.526 7513264.714 10 0 59517 38700.00000 0 -6579614.091 24221755.504 4408889.608 10 0 59517 39600.00000 0 -6553758.441 24591412.126 1218622.628 10 0 59517 40500.00000 0 -6404931.694 24575374.908 -1995395.729 10 0 59517 41400.00000 0 -6186864.182 24161012.924 -5170492.074 10 0 59517 42300.00000 0 -5955141.396 23348991.891 -8244698.344 10 0 59517 43200.00000 0 -5764605.532 22153348.030 -11157980.190 10 0 59517 44100.00000 0 -5666792.620 20601012.762 -13853429.500 10 0 59517 45000.00000 0 -5707516.369 18730807.229 -16278395.585 10 0 59517 45900.00000 0 -5924703.707 16591948.579 -18385530.973 10 0 59517 46800.00000 0 -6346576.070 14242131.156 -20133729.749 10 0 59517 47700.00000 0 -6990255.376 11745264.153 -21488938.794 10 0 59517 48600.00000 0 -7860855.042 9168961.869 -22424825.431 10 0 59517 49500.00000 0 -8951095.241 6581893.063 -22923288.285 10 0 59517 50400.00000 0 -10241458.761 4051101.609 -22974801.715 10 0 59517 51300.00000 0 -11700880.503 1639411.224 -22578587.938 10 0 59517 52200.00000 0 -13287940.772 -596977.132 -21742614.631 10 0 59517 53100.00000 0 -14952511.011 -2610595.307 -20483419.477 10 0 59517 54000.00000 0 -16637781.641 -4364438.721 -18825766.587 10 0 59517 54900.00000 0 -18282585.721 -5833247.597 -16802143.021 10 0 59517 55800.00000 0 -19823919.958 -7004287.731 -14452106.731 10 0 59517 56700.00000 0 -21199556.775 -7877601.317 -11821499.927 10 0 59517 57600.00000 0 -22350637.776 -8465720.659 -8961544.314 10 0 59517 58500.00000 0 -23224140.153 -8792860.081 -5927836.729 10 0 59517 59400.00000 0 -23775113.459 -8893623.055 -2779265.322 10 0 59517 60300.00000 0 -23968594.133 -8811281.494 423132.397 10 0 59517 61200.00000 0 -23781118.948 -8595701.530 3617347.406 10 0 59517 62100.00000 0 -23201775.531 -8301004.378 6741590.470 10 0 59517 63000.00000 0 -22232747.371 -7983061.273 9735474.571 10 0 59517 63900.00000 0 -20889331.744 -7696927.779 12541166.495 10 0 59517 64800.00000 0 -19199430.514 -7494324.777 15104486.724 10 0 59517 65700.00000 0 -17202535.303 -7421271.014 17375937.934 10 0 59517 66600.00000 0 -14948248.892 -7515965.518 19311643.841 10 0 59517 67500.00000 0 -12494403.383 -7807007.720 20874182.004 10 0 59517 68400.00000 0 -9904851.664 -8312029.192 22033296.068 10 0 59517 69300.00000 0 -7247021.880 -9036794.136 22766474.893 10 0 59517 70200.00000 0 -4589333.967 -9974806.749 23059388.290 10 0 59517 71100.00000 0 -1998582.896 -11107443.061 22906171.224 10 0 59517 72000.00000 0 462605.105 -12404603.598 22309550.721 10 0 59517 72900.00000 0 2738139.854 -13825861.957 21280812.097 10 0 59517 73800.00000 0 4780561.261 -15322064.058 19839603.708 10 0 59517 74700.00000 0 6552773.824 -16837313.909 18013582.064 10 0 59517 75600.00000 0 8029349.642 -18311265.410 15837901.951 10 0 59517 76500.00000 0 9197345.169 -19681626.240 13354559.094 10 0 59517 77400.00000 0 10056596.673 -20886770.155 10611595.938 10 0 59517 78300.00000 0 10619480.907 -21868348.489 7662184.062 10 0 59517 79200.00000 0 10910149.910 -22573790.617 4563599.684 10 0 59517 80100.00000 0 10963271.116 -22958586.751 1376111.467 10 0 59517 81000.00000 0 10822325.429 -22988254.875 -1838197.732 10 0 59517 81900.00000 0 10537535.189 -22639906.289 -5016651.617 10 0 59517 82800.00000 0 10163510.357 -21903341.005 -8097218.504 10 0 59517 83700.00000 0 9756713.992 -20781624.104 -11019740.829 10 0 59517 84600.00000 0 9372856.282 -19291116.465 -13727130.062 10 0 59517 85500.00000 0 9064329.858 -17460956.888 -16166501.499 10 0 59518 0.00000 0 8877797.499 -15332016.634 -18290224.620 10 0 59518 900.00000 0 8852036.672 -12955368.858 -20056867.926 10 0 59518 1800.00000 0 9016134.345 -10390340.635 -21432015.660 10 0 59518 2700.00000 0 9388109.613 -7702226.306 -22388943.636 10 0 59518 3600.00000 0 9974023.477 -4959761.908 -22909137.807 10 0 59518 4500.00000 0 10767613.462 -2232466.456 -22982647.024 10 0 59518 5400.00000 0 11750468.110 412037.708 -22608263.671 10 0 59518 6300.00000 0 12892733.072 2910613.170 -21793529.800 10 0 59518 7200.00000 0 14154317.804 5206996.359 -20554570.054 10 0 59518 8100.00000 0 15486550.589 7253888.351 -18915756.122 10 0 59518 9000.00000 0 16834210.868 9014661.949 -16909210.828 10 0 59518 9900.00000 0 18137852.074 10464615.964 -14574162.996 10 0 59518 10800.00000 0 19336316.410 11591727.189 -11956167.014 10 0 59518 11700.00000 0 20369335.304 12396871.801 -9106203.410 10 0 59518 12600.00000 0 21180106.224 12893510.207 -6079678.898 10 0 59518 13500.00000 0 21717737.961 13106851.829 -2935345.984 10 0 59518 14400.00000 0 21939462.546 13072537.732 265836.613 10 0 59518 15300.00000 0 21812522.048 12834898.825 3461880.522 10 0 59518 16200.00000 0 21315652.412 12444864.536 6590958.807 10 0 59518 17100.00000 0 20440103.432 11957610.883 9592589.283 10 0 59518 18000.00000 0 19190153.263 11430047.055 12408788.059 10 0 59518 18900.00000 0 17583096.724 10918245.793 14985172.392 10 0 59518 19800.00000 0 15648708.124 10474924.607 17271993.104 10 0 59518 20700.00000 0 13428200.730 10147082.421 19225078.214 10 0 59518 21600.00000 0 10972725.210 9973889.480 20806671.313 10 0 59518 22500.00000 0 8341467.905 9984917.921 21986150.036 10 0 59518 23400.00000 0 5599425.880 10198786.342 22740612.004 10 0 59518 24300.00000 0 2814948.559 10622274.973 23055317.818 10 0 59518 25200.00000 0 57145.236 11249948.955 22923982.867 10 0 59518 26100.00000 0 -2606736.599 12064306.678 22348912.057 10 0 59518 27000.00000 0 -5113855.760 13036448.796 21340973.985 10 0 59518 27900.00000 0 -7408141.009 14127242.219 19919413.602 10 0 59518 28800.00000 0 -9442376.818 15288932.895 18111505.093 10 0 59518 29700.00000 0 -11179925.097 16467142.305 15952049.478 10 0 59518 30600.00000 0 -12596011.032 17603166.185 13482724.312 10 0 59518 31500.00000 0 -13678518.589 18636480.508 10751295.911 10 0 59518 32400.00000 0 -14428261.348 19507350.270 7810707.479 10 0 59518 33300.00000 0 -14858716.036 20159431.186 4718059.418 10 0 59518 34200.00000 0 -14995228.748 20542253.699 1533500.935 10 0 59518 35100.00000 0 -14873726.423 20613482.731 -1680945.542 10 0 59518 36000.00000 0 -14538987.609 20340855.381 -4862603.649 10 0 59518 36900.00000 0 -14042545.799 19703711.960 -7949380.939 10 0 59518 37800.00000 0 -13440315.030 18694052.838 -10880999.450 10 0 59518 38700.00000 0 -12790039.751 17317073.818 -13600192.953 10 0 59518 39600.00000 0 -12148678.976 15591155.270 -16053845.282 10 0 59518 40500.00000 0 -11569837.731 13547303.910 -18194045.569 10 0 59518 41400.00000 0 -11101356.782 11228069.803 -19979038.042 10 0 59518 42300.00000 0 -10783164.651 8685984.037 -21374046.528 10 0 59518 43200.00000 0 -10645484.295 5981583.022 -22351956.815 10 0 59518 44100.00000 0 -10707471.198 3181103.023 -22893843.358 10 0 59518 45000.00000 0 -10976340.656 353942.525 -22989330.309 10 0 59518 45900.00000 0 -11447020.685 -2430000.581 -22636780.649 10 0 59518 46800.00000 0 -12102344.212 -5103005.149 -21843310.832 10 0 59518 47700.00000 0 -12913770.996 -7602104.340 -20624632.045 10 0 59518 48600.00000 0 -13842607.158 -9871457.545 -19004722.725 10 0 59518 49500.00000 0 -14841669.178 -11864418.905 -17015340.199 10 0 59518 50400.00000 0 -15857320.569 -13545217.863 -14695382.542 10 0 59518 51300.00000 0 -16831794.106 -14890184.051 -12090114.378 10 0 59518 52200.00000 0 -17705700.819 -15888468.230 -9250272.857 10 0 59518 53100.00000 0 -18420619.607 -16542232.230 -6231072.187 10 0 59518 54000.00000 0 -18921658.473 -16866303.185 -3091126.686 10 0 59518 54900.00000 0 -19159880.066 -16887309.562 108686.379 10 0 59518 55800.00000 0 -19094490.347 -16642337.823 3306402.038 10 0 59518 56700.00000 0 -18694699.518 -16177168.185 6440158.496 10 0 59518 57600.00000 0 -17941178.210 -15544164.903 9449381.285 10 0 59518 58500.00000 0 -16827048.978 -14799910.318 12275938.726 10 0 59518 59400.00000 0 -15358372.376 -14002681.920 14865247.674 10 0 59518 60300.00000 0 -13554107.598 -13209877.622 17167309.778 10 0 59518 61200.00000 0 -11445549.200 -12475496.117 19137659.827 10 0 59518 62100.00000 0 -9075262.484 -11847776.522 20738209.606 10 0 59518 63000.00000 0 -6495560.374 -11367094.791 21937972.562 10 0 59518 63900.00000 0 -3766583.066 -11064203.767 22713656.509 10 0 59518 64800.00000 0 -954057.635 -10958889.748 23050113.874 10 0 59518 65700.00000 0 1873172.264 -11059101.586 22940641.123 10 0 59518 66600.00000 0 4645746.935 -11360589.239 22387121.337 10 0 59518 67500.00000 0 7296416.234 -11847068.049 21400006.349 10 0 59518 68400.00000 0 9762583.536 -12490903.619 19998137.339 10 0 59518 69300.00000 0 11988663.990 -13254290.717 18208405.492 10 0 59518 70200.00000 0 13928159.951 -14090879.083 16065257.058 10 0 59518 71100.00000 0 15545367.352 -14947780.059 13610050.069 10 0 59518 72000.00000 0 16816641.254 -15767871.495 10890272.986 10 0 59518 72900.00000 0 17731166.673 -16492305.042 7958638.513 10 0 59518 73800.00000 0 18291201.040 -17063110.549 4872068.730 10 0 59518 74700.00000 0 18511776.677 -17425787.091 1690590.549 10 0 59518 75600.00000 0 18419874.624 -17531769.836 -1523837.136 10 0 59518 76500.00000 0 18053103.844 -17340666.332 -4708541.164 10 0 59518 77400.00000 0 17457941.325 -16822165.005 -7801371.661 10 0 59518 78300.00000 0 16687607.930 -15957532.281 -10741933.572 10 0 59518 79200.00000 0 15799670.903 -14740632.124 -13472786.159 10 0 59518 80100.00000 0 14853476.126 -13178422.392 -15940584.813 10 0 59518 81000.00000 0 13907520.760 -11290904.971 -18097140.900 10 0 59518 81900.00000 0 13016879.537 -9110530.361 -19900377.236 10 0 59518 82800.00000 0 12230795.497 -6681081.093 -21315159.136 10 0 59518 83700.00000 0 11590538.640 -4056080.819 -22313984.079 10 0 59518 84600.00000 0 11127623.934 -1296796.221 -22877516.287 10 0 59518 85500.00000 0 10862464.312 1530083.679 -22994956.024 10 0 59519 0.00000 0 10803515.099 4354992.665 -22664237.262 10 0 59519 900.00000 0 10946944.966 7108151.319 -21892050.690 10 0 59519 1800.00000 0 11276845.724 9722234.370 -20693693.529 10 0 59519 2700.00000 0 11765970.083 12134935.256 -19092750.030 10 0 59519 3600.00000 0 12376964.268 14291317.814 -17120610.734 10 0 59519 4500.00000 0 13064041.385 16145859.738 -14815841.304 10 0 59519 5400.00000 0 13775023.132 17664104.269 -12223414.596 10 0 59519 6300.00000 0 14453662.286 18823853.600 -9393822.053 10 0 59519 7200.00000 0 15042147.050 19615856.904 -6382082.729 10 0 59519 8100.00000 0 15483681.204 20043967.256 -3246669.878 10 0 59519 9000.00000 0 15725031.386 20124763.879 -48376.242 10 0 59519 9900.00000 0 15718934.723 19886658.220 3150859.767 10 0 59519 10800.00000 0 15426266.323 19368523.638 6289144.634 10 0 59519 11700.00000 0 14817876.501 18617907.828 9305814.660 10 0 59519 12600.00000 0 13876021.658 17688903.908 12142593.241 10 0 59519 13500.00000 0 12595329.609 16639769.683 14744699.476 10 0 59519 14400.00000 0 10983259.425 15530394.411 17061888.233 10 0 59519 15300.00000 0 9060036.542 14419718.221 19049403.182 10 0 59519 16200.00000 0 6858065.198 13363210.791 20668826.141 10 0 59519 17100.00000 0 4420841.293 12410513.220 21888807.917 10 0 59519 18000.00000 0 1801409.063 11603340.167 22685667.767 10 0 59519 18900.00000 0 -939576.836 10973728.703 23043850.871 10 0 59519 19800.00000 0 -3736106.237 10542706.254 22956235.342 10 0 59519 20700.00000 0 -6519294.688 10319433.151 22424282.614 10 0 59519 21600.00000 0 -9219991.012 10300856.088 21458027.514 10 0 59519 22500.00000 0 -11771405.527 10471888.088 20075906.775 10 0 59519 23400.00000 0 -14111651.687 10806109.058 18304427.466 10 0 59519 24300.00000 0 -16186096.824 11266959.484 16177679.541 10 0 59519 25200.00000 0 -17949424.596 11809379.144 13736699.622 10 0 59519 26100.00000 0 -19367322.792 12381823.740 11028696.133 10 0 59519 27000.00000 0 -20417725.106 12928575.847 8106148.885 10 0 59519 27900.00000 0 -21091553.475 13392253.408 5025799.097 10 0 59519 28800.00000 0 -21392928.224 13716409.665 1847548.743 10 0 59519 29700.00000 0 -21338835.635 13848113.648 -1366709.509 10 0 59519 30600.00000 0 -20958265.747 13740400.219 -4554308.452 10 0 59519 31500.00000 0 -20290855.952 13354483.593 -7653043.543 10 0 59519 32400.00000 0 -19385097.648 12661637.766 -10602405.396 10 0 59519 33300.00000 0 -18296182.270 11644661.344 -13344781.475 10 0 59519 34200.00000 0 -17083578.994 10298862.001 -15826601.322 10 0 59519 35100.00000 0 -15808448.183 8632516.577 -17999400.966 10 0 59519 36000.00000 0 -14531001.782 6666785.478 -19820783.977 10 0 59519 36900.00000 0 -13307924.139 4435083.855 -21255259.024 10 0 59519 37800.00000 0 -12189963.742 1981935.461 -22274936.796 10 0 59519 38700.00000 0 -11219798.672 -638642.658 -22860072.424 10 0 59519 39600.00000 0 -10430266.298 -3365156.305 -22999443.038 10 0 59519 40500.00000 0 -9843031.599 -6130965.964 -22690553.858 10 0 59519 41400.00000 0 -9467749.260 -8866836.026 -21939669.874 10 0 59519 42300.00000 0 -9301753.258 -11503594.194 -20761673.867 10 0 59519 43200.00000 0 -9330284.879 -13974789.791 -19179755.066 10 0 59519 44100.00000 0 -9527247.159 -16219240.328 -17224936.027 10 0 59519 45000.00000 0 -9856451.469 -18183360.735 -14935448.500 10 0 59519 45900.00000 0 -10273301.321 -19823179.549 -12355971.804 10 0 59519 46800.00000 0 -10726840.341 -21105959.825 -9536749.711 10 0 59519 47700.00000 0 -11162076.470 -22011359.395 -6532604.024 10 0 59519 48600.00000 0 -11522483.303 -22532084.737 -3401864.707 10 0 59519 49500.00000 0 -11752572.642 -22674013.855 -205237.683 10 0 59519 50400.00000 0 -11800429.882 -22455785.700 2995367.581 10 0 59519 51300.00000 0 -11620105.945 -21907875.706 6138028.315 10 0 59519 52200.00000 0 -11173765.896 -21071197.991 9161994.127 10 0 59519 53100.00000 0 -10433504.886 -19995294.031 12008846.086 10 0 59519 54000.00000 0 -9382756.038 -18736184.163 14623608.137 10 0 59519 54900.00000 0 -8017231.869 -17353971.667 16955790.914 10 0 59519 55800.00000 0 -6345360.046 -15910298.855 18960349.403 10 0 59519 56700.00000 0 -4388194.857 -14465760.185 20598537.703 10 0 59519 57600.00000 0 -2178806.995 -13077378.806 21838645.971 10 0 59519 58500.00000 0 238824.593 -11796250.201 22656606.615 10 0 59519 59400.00000 0 2811375.047 -10665449.618 23036458.954 10 0 59519 60300.00000 0 5478128.021 -9718289.334 22970663.811 10 0 59519 61200.00000 0 8173243.972 -8976997.724 22460261.723 10 0 59519 62100.00000 0 10828251.245 -8451875.115 21514870.944 10 0 59519 63000.00000 0 13374659.330 -8140962.142 20152523.889 10 0 59519 63900.00000 0 15746587.952 -8030235.576 18399343.317 10 0 59519 64800.00000 0 17883304.324 -8094324.842 16289062.368 10 0 59519 65700.00000 0 19731563.788 -8297720.893 13862395.359 10 0 59519 66600.00000 0 21247656.115 -8596428.303 11166269.385 10 0 59519 67500.00000 0 22399071.287 -8939992.409 8252929.618 10 0 59519 68400.00000 0 23165713.661 -9273816.876 5178934.226 10 0 59519 69300.00000 0 23540611.828 -9541673.980 2004057.625 10 0 59519 70200.00000 0 23530092.571 -9688300.818 -1209876.743 10 0 59519 71100.00000 0 23153409.914 -9661970.124 -4400210.881 10 0 59519 72000.00000 0 22441843.687 -9416924.686 -7504689.016 10 0 59519 72900.00000 0 21437304.969 -8915569.625 -10462690.899 10 0 59519 73800.00000 0 20190507.352 -8130326.722 -13216435.602 10 0 59519 74700.00000 0 18758781.932 -7045069.446 -15712130.065 10 0 59519 75600.00000 0 17203629.605 -5656075.291 -17901038.000 10 0 59519 76500.00000 0 15588115.602 -3972452.978 -19740446.489 10 0 59519 77400.00000 0 13974218.062 -2016024.940 -21194509.994 10 0 59519 78300.00000 0 12420244.056 179330.922 -22234954.503 10 0 59519 79200.00000 0 10978423.238 2568852.838 -22841627.753 10 0 59519 80100.00000 0 9692781.197 5098530.669 -23002885.011 10 0 59519 81000.00000 0 8597381.983 7707136.119 -22715803.611 10 0 59519 81900.00000 0 7715012.946 10328561.926 -21986223.138 10 0 59519 82800.00000 0 7056365.749 12894371.322 -20828611.834 10 0 59519 83700.00000 0 6619745.837 15336450.738 -19265763.335 10 0 59519 84600.00000 0 6391320.008 17589654.786 -17328331.189 10 0 59519 85500.00000 0 6345888.892 19594333.327 -15054211.776 99